Flag for Germany Weather past 2 weeks in Gifhorn, Lower Saxony, Germany

Now
43 °F

Partly cloudy.


Feels Like: 38 °F
Forecast: 38 / 51 °F
Wind: 8 mph from Southwest

Location: Celle Airport

Current Time: Mar 27, 2015 at 6:30:51 AM

Latest Report: Mar 27, 2015 at 5:20 AM


Visibility: 4 mi

Pressure: 29.77 "Hg

Humidity: 87%

Dew point: 39 °F

Location of GifhornLocation

Historic Weather in Gifhorn — Graph

°F

Gifhorn temperature yesterday

Maximum temperature yesterday: 45 °F (at 12:20 AM)
Minimum temperature yesterday: 39 °F (at 11:20 PM)
Average temperature yesterday: 42 °F

Past Weeks' High & Low Weather Summary

 TemperatureHumidityPressure
High61 °F (Mar 25, 3:20 PM)100% (Mar 12, 5:20 AM)30.54 "Hg (Mar 12, 5:20 AM)
Low27 °F (Mar 20, 5:20 AM)31% (Mar 19, 3:20 PM)29.65 "Hg (Mar 25, 3:20 PM)
Average42 °F74%30.17 "Hg
* Reported Mar 12 5:20 AM — Mar 27 5:20 AM, Gifhorn, Weather by CustomWeather, © 2015

Note: Actual official high and low records may vary slightly from our data, if they occured in-between our weather recording intervals... More about our weather records

Advertising

Gifhorn weather history for previous 24 hours

 ConditionsComfort  
Time TempWeatherWind HumidityBarometerVisibility
5:20 AM
Fri, Mar 27
43 °FPartly cloudy.8 mph87%29.77 "Hg4 mi
4:20 AM41 °FPassing clouds.5 mph93%29.74 "Hg4 mi
3:20 AM41 °FPassing clouds.5 mph93%29.74 "Hg4 mi
2:20 AM41 °FPassing clouds.3 mph93%29.74 "Hg4 mi
1:20 AM41 °FFog.6 mph93%29.74 "Hg3 mi
12:20 AM41 °FLight rain. Fog.5 mph87%29.74 "Hg3 mi
11:20 PM
Thu, Mar 26
39 °FLight rain. Fog.2 mph100%29.74 "Hg3 mi
10:20 PM41 °FLight rain. Fog.2 mph93%29.74 "Hg3 mi
9:20 PM41 °FLight rain. Passing clouds.1 mph93%29.74 "Hg4 mi
8:20 PM41 °FLight rain. Mostly cloudy.5 mph87%29.74 "HgN/A
7:20 PM43 °FPassing clouds.2 mph76%29.74 "HgN/A
6:20 PM43 °FPartly sunny.3 mph76%29.74 "HgN/A
4:20 PM45 °FPartly sunny.3 mph66%29.74 "HgN/A
3:20 PM45 °FPartly sunny.6 mph66%29.74 "HgN/A
2:20 PM45 °FPartly sunny.8 mph66%29.74 "HgN/A
1:20 PM43 °FPartly sunny.9 mph71%29.77 "HgN/A
12:20 PM43 °FPartly sunny.9 mph66%29.77 "HgN/A
11:20 AM43 °FPartly sunny.10 mph66%29.77 "HgN/A
10:20 AM43 °FPartly sunny.9 mph71%29.77 "HgN/A
9:50 AM41 °FOvercast.8 mph76%29.77 "HgN/A
9:20 AM41 °FOvercast.7 mph81%29.77 "HgN/A
8:20 AM41 °FOvercast.7 mph81%29.74 "Hg6 mi
7:20 AM41 °FOvercast.8 mph81%29.74 "Hg6 mi
6:20 AM41 °FPartly sunny.8 mph87%29.74 "Hg5 mi
Weather by CustomWeather, © 2015

See weather overviewHow to use our weather pages